Location: Nitra
(0.0000°N, 18.0833°E)
Time: 06:05:06
(UTC+01:00)

SL-08 RB Rocket - Pass Details

Date: 24 January 2021
Orbit: 647 x 683 km, 97.8° (Epoch: 04 March)

Event Time Altitude Azimuth Distance (km) Brightness Sun altitude
Rises 19:12:56 0° 158° (SSE) 3,025 7.1 -17.2°
Reaches altitude 10° 19:15:15 10° 152° (SSE) 2,103 6.2 -17.8°
Maximum altitude 19:19:40 47° 78° (ENE) 883 3.9 -18.8°
Enters shadow 19:21:49 27° 20° (NNE) 1,278 4.8 -19.3°
